Year,Month,Day,Hour,Minute,Value (Times are PST for temperature in C)
2018,03,24,00,00,3.30
2018,03,24,00,01,3.30
2018,03,24,00,02,3.30
2018,03,24,00,03,3.30
2018,03,24,00,04,3.30
2018,03,24,00,05,3.30
2018,03,24,00,06,3.30
2018,03,24,00,07,3.30
2018,03,24,00,08,3.30
2018,03,24,00,09,3.30
2018,03,24,00,10,3.30
2018,03,24,00,11,3.30
2018,03,24,00,12,3.30
2018,03,24,00,13,3.30
2018,03,24,00,14,3.30
2018,03,24,00,15,3.30
2018,03,24,00,16,3.30
2018,03,24,00,17,3.30
2018,03,24,00,18,3.20
2018,03,24,00,19,3.20
2018,03,24,00,20,3.20
2018,03,24,00,21,3.20
2018,03,24,00,22,3.20
2018,03,24,00,23,3.20
2018,03,24,00,24,3.20
2018,03,24,00,25,3.20
2018,03,24,00,26,3.20
2018,03,24,00,27,3.20
2018,03,24,00,28,3.20
2018,03,24,00,29,3.20
2018,03,24,00,30,3.20
2018,03,24,00,31,3.20
2018,03,24,00,32,3.20
2018,03,24,00,33,3.20
2018,03,24,00,34,3.20
2018,03,24,00,35,3.20
2018,03,24,00,36,3.20
2018,03,24,00,37,3.20
2018,03,24,00,38,3.20
2018,03,24,00,39,3.20
2018,03,24,00,40,3.20
2018,03,24,00,41,3.20
2018,03,24,00,42,3.20
2018,03,24,00,43,3.20
2018,03,24,00,44,3.20
2018,03,24,00,45,3.20
2018,03,24,00,46,3.20
2018,03,24,00,47,3.20
2018,03,24,00,48,3.20
2018,03,24,00,49,3.20
2018,03,24,00,50,3.20
2018,03,24,00,51,3.20
2018,03,24,00,52,3.20
2018,03,24,00,53,3.20
2018,03,24,00,54,3.20
2018,03,24,00,55,3.20
2018,03,24,00,56,3.20
2018,03,24,00,57,3.20
2018,03,24,00,58,3.20
2018,03,24,00,59,3.20
2018,03,24,01,00,3.20
2018,03,24,01,01,3.20
2018,03,24,01,02,3.20
2018,03,24,01,03,3.20
2018,03,24,01,04,3.20
2018,03,24,01,05,3.20
2018,03,24,01,06,3.20
2018,03,24,01,07,3.20
2018,03,24,01,08,3.20
2018,03,24,01,09,3.20
2018,03,24,01,10,3.30
2018,03,24,01,11,3.30
2018,03,24,01,12,3.30
2018,03,24,01,13,3.30
2018,03,24,01,14,3.30
2018,03,24,01,15,3.30
2018,03,24,01,16,3.30
2018,03,24,01,17,3.30
2018,03,24,01,18,3.30
2018,03,24,01,19,3.30
2018,03,24,01,20,3.30
2018,03,24,01,21,3.30
2018,03,24,01,22,3.30
2018,03,24,01,23,3.30
2018,03,24,01,24,3.30
2018,03,24,01,40,3.20
2018,03,24,01,41,3.20
2018,03,24,01,42,3.20
2018,03,24,01,43,3.20
2018,03,24,01,44,3.20
2018,03,24,01,45,3.20
2018,03,24,01,46,3.10
2018,03,24,01,47,3.10
2018,03,24,01,48,3.10
2018,03,24,01,49,3.00
2018,03,24,01,50,3.00
2018,03,24,01,51,3.00
2018,03,24,01,52,3.00
2018,03,24,01,53,2.90
2018,03,24,01,54,2.90
2018,03,24,01,55,2.90
2018,03,24,01,56,2.90
2018,03,24,01,57,2.90
2018,03,24,01,58,2.90
2018,03,24,01,59,2.80
2018,03,24,02,00,2.80
2018,03,24,02,01,2.80
2018,03,24,02,02,2.80
2018,03,24,02,03,2.80
2018,03,24,02,04,2.80
2018,03,24,02,05,2.80
2018,03,24,02,06,2.80
2018,03,24,02,07,2.80
2018,03,24,02,08,2.70
2018,03,24,02,09,2.70
2018,03,24,02,10,2.70
2018,03,24,02,11,2.70
2018,03,24,02,12,2.70
2018,03,24,02,13,2.70
2018,03,24,02,14,2.70
2018,03,24,02,15,2.70
2018,03,24,02,16,2.60
2018,03,24,02,17,2.60
2018,03,24,02,18,2.60
2018,03,24,02,19,2.60
2018,03,24,02,20,2.50
2018,03,24,02,21,2.50
2018,03,24,02,22,2.50
2018,03,24,02,23,2.50
2018,03,24,02,24,2.40
2018,03,24,02,25,2.50
2018,03,24,02,26,2.50
2018,03,24,02,27,2.40
2018,03,24,02,28,2.40
2018,03,24,02,29,2.50
2018,03,24,02,30,2.50
2018,03,24,02,31,2.40
2018,03,24,02,32,2.40
2018,03,24,02,33,2.40
2018,03,24,02,34,2.40
2018,03,24,02,35,2.40
2018,03,24,02,36,2.40
2018,03,24,02,37,2.40
2018,03,24,02,38,2.40
2018,03,24,02,39,2.40
2018,03,24,02,40,2.30
2018,03,24,02,41,2.30
2018,03,24,02,42,2.30
2018,03,24,02,43,2.30
2018,03,24,02,44,2.30
2018,03,24,02,45,2.30
2018,03,24,02,46,2.30
2018,03,24,02,47,2.30
2018,03,24,02,48,2.20
2018,03,24,02,49,2.20
2018,03,24,02,50,2.20
2018,03,24,02,51,2.20
2018,03,24,02,52,2.20
2018,03,24,02,53,2.10
2018,03,24,02,54,2.10
2018,03,24,02,55,2.10
2018,03,24,02,56,2.10
2018,03,24,02,57,2.10
2018,03,24,02,58,2.00
2018,03,24,02,59,2.00
2018,03,24,03,00,2.00
2018,03,24,03,01,2.00
2018,03,24,03,02,1.90
2018,03,24,03,03,1.90
2018,03,24,03,04,1.90
2018,03,24,03,05,1.90
2018,03,24,03,06,1.90
2018,03,24,03,07,1.90
2018,03,24,03,08,1.90
2018,03,24,03,09,1.80
2018,03,24,03,10,1.80
2018,03,24,03,11,1.80
2018,03,24,03,12,1.80
2018,03,24,03,13,1.80
2018,03,24,03,14,1.80
2018,03,24,03,15,1.80
2018,03,24,03,16,1.80
2018,03,24,03,17,1.70
2018,03,24,03,18,1.70
2018,03,24,03,19,1.70
2018,03,24,03,20,1.70
2018,03,24,03,21,1.70
2018,03,24,03,22,1.70
2018,03,24,03,23,1.70
2018,03,24,03,24,1.70
2018,03,24,03,25,1.70
2018,03,24,03,26,1.70
2018,03,24,03,27,1.70
2018,03,24,03,28,1.70
2018,03,24,03,29,1.70
2018,03,24,03,30,1.70
2018,03,24,03,31,1.80
2018,03,24,03,32,1.80
2018,03,24,03,33,1.80
2018,03,24,03,34,1.80
2018,03,24,03,35,1.70
2018,03,24,03,36,1.70
2018,03,24,03,37,1.70
2018,03,24,03,38,1.70
2018,03,24,03,39,1.70
2018,03,24,03,40,1.70
2018,03,24,03,41,1.70
2018,03,24,03,42,1.70
2018,03,24,03,43,1.70
2018,03,24,03,44,1.70
2018,03,24,03,45,1.70
2018,03,24,03,46,1.70
2018,03,24,03,47,1.70
2018,03,24,03,48,1.60
2018,03,24,03,49,1.60
2018,03,24,03,50,1.60
2018,03,24,03,51,1.60
2018,03,24,03,52,1.70
2018,03,24,03,53,1.60
2018,03,24,03,54,1.70
2018,03,24,03,55,1.60
2018,03,24,03,56,1.60
2018,03,24,03,57,1.60
2018,03,24,03,58,1.60
2018,03,24,03,59,1.60
2018,03,24,04,00,1.60
2018,03,24,04,01,1.60
2018,03,24,04,02,1.60
2018,03,24,04,03,1.60
2018,03,24,04,04,1.60
2018,03,24,04,05,1.60
2018,03,24,04,06,1.60
2018,03,24,04,07,1.60
2018,03,24,04,08,1.60
2018,03,24,04,09,1.60
2018,03,24,04,10,1.60
2018,03,24,04,11,1.60
2018,03,24,04,12,1.60
2018,03,24,04,13,1.50
2018,03,24,04,14,1.50
2018,03,24,04,15,1.40
2018,03,24,04,16,1.40
2018,03,24,04,17,1.40
2018,03,24,04,18,1.30
2018,03,24,04,19,1.30
2018,03,24,04,20,1.30
2018,03,24,04,21,1.30
2018,03,24,04,22,1.20
2018,03,24,04,23,1.20
2018,03,24,04,24,1.20
2018,03,24,04,25,1.20
2018,03,24,04,26,1.20
2018,03,24,04,27,1.20
2018,03,24,04,28,1.20
2018,03,24,04,29,1.20
2018,03,24,04,30,1.20
2018,03,24,04,31,1.10
2018,03,24,04,32,1.10
2018,03,24,04,33,1.10
2018,03,24,04,34,1.10
2018,03,24,04,35,1.10
2018,03,24,04,36,1.10
2018,03,24,04,37,1.10
2018,03,24,04,38,1.10
2018,03,24,04,39,1.10
2018,03,24,04,40,1.10
2018,03,24,04,41,1.10
2018,03,24,04,42,1.10
2018,03,24,04,43,1.10
2018,03,24,04,44,1.10
2018,03,24,04,45,1.10
2018,03,24,04,46,1.10
2018,03,24,04,47,1.10
2018,03,24,04,48,1.10
2018,03,24,04,49,1.10
2018,03,24,04,50,1.10
2018,03,24,04,51,1.10
2018,03,24,04,52,1.10
2018,03,24,04,53,1.10
2018,03,24,04,54,1.10
2018,03,24,04,55,1.10
2018,03,24,04,56,1.00
2018,03,24,04,57,1.00
2018,03,24,04,58,1.00
2018,03,24,04,59,1.00
2018,03,24,05,00,1.00
2018,03,24,05,01,0.90
2018,03,24,05,02,1.00
2018,03,24,05,03,1.00
2018,03,24,05,04,0.90
2018,03,24,05,05,0.90
2018,03,24,05,06,0.90
2018,03,24,05,07,0.90
2018,03,24,05,08,0.90
2018,03,24,05,09,0.90
2018,03,24,05,10,0.90
2018,03,24,05,11,0.90
2018,03,24,05,12,0.80
2018,03,24,05,13,0.80
2018,03,24,05,14,0.80
2018,03,24,05,15,0.80
2018,03,24,05,16,0.70
2018,03,24,05,17,0.70
2018,03,24,05,18,0.70
2018,03,24,05,19,0.70
2018,03,24,05,20,0.70
2018,03,24,05,21,0.70
2018,03,24,05,22,0.70
2018,03,24,05,23,0.60
2018,03,24,05,24,0.60
2018,03,24,05,25,0.60
2018,03,24,05,26,0.60
2018,03,24,05,27,0.60
2018,03,24,05,28,0.60
2018,03,24,05,29,0.60
2018,03,24,05,30,0.60
2018,03,24,05,31,0.70
2018,03,24,05,32,0.70
2018,03,24,05,33,0.70
2018,03,24,05,34,0.60
2018,03,24,05,35,0.70
2018,03,24,05,36,0.60
2018,03,24,05,37,0.70
2018,03,24,05,38,0.60
2018,03,24,05,39,0.70
2018,03,24,05,40,0.60
2018,03,24,05,41,0.60
2018,03,24,05,42,0.60
2018,03,24,05,43,0.60
2018,03,24,05,44,0.60
2018,03,24,05,45,0.60
2018,03,24,05,46,0.60
2018,03,24,05,47,0.60
2018,03,24,05,48,0.60
2018,03,24,05,49,0.60
2018,03,24,05,50,0.60
2018,03,24,05,51,0.60
2018,03,24,05,52,0.60
2018,03,24,05,53,0.60
2018,03,24,05,54,0.60
2018,03,24,05,55,0.60
2018,03,24,05,56,0.70
2018,03,24,05,57,0.70
2018,03,24,05,58,0.70
2018,03,24,05,59,0.70
2018,03,24,06,00,0.70
2018,03,24,06,01,0.70
2018,03,24,06,02,0.70
2018,03,24,06,03,0.70
2018,03,24,06,04,0.70
2018,03,24,06,05,0.80
2018,03,24,06,06,0.80
2018,03,24,06,07,0.80
2018,03,24,06,08,0.80
2018,03,24,06,09,0.80
2018,03,24,06,10,0.80
2018,03,24,06,11,0.80
2018,03,24,06,12,0.90
2018,03,24,06,13,0.90
2018,03,24,06,14,0.90
2018,03,24,06,15,0.90
2018,03,24,06,16,0.90
2018,03,24,06,17,0.90
2018,03,24,06,18,0.90
2018,03,24,06,19,0.90
2018,03,24,06,20,0.90
2018,03,24,06,21,0.90
2018,03,24,06,22,0.90
2018,03,24,06,23,0.90
2018,03,24,06,24,0.90
2018,03,24,06,25,0.90
2018,03,24,06,26,0.90
2018,03,24,06,27,0.90
2018,03,24,06,28,0.90
2018,03,24,06,29,0.90
2018,03,24,06,30,0.80
2018,03,24,06,31,0.80
2018,03,24,06,32,0.80
2018,03,24,06,33,0.80
2018,03,24,06,34,0.80
2018,03,24,06,35,0.80
2018,03,24,06,36,0.80
2018,03,24,06,37,0.80
2018,03,24,06,38,0.80
2018,03,24,06,39,0.80
2018,03,24,06,40,0.90
2018,03,24,06,41,0.90
2018,03,24,06,42,0.90
2018,03,24,06,43,0.80
2018,03,24,06,44,0.80
2018,03,24,06,45,0.80
2018,03,24,06,46,0.80
2018,03,24,06,47,0.80
2018,03,24,06,48,0.80
2018,03,24,06,49,0.80
2018,03,24,06,50,0.80
2018,03,24,06,51,0.80
2018,03,24,06,52,0.80
2018,03,24,06,53,0.80
2018,03,24,06,54,0.80
2018,03,24,06,55,0.80
2018,03,24,06,56,0.80
2018,03,24,06,57,0.80
2018,03,24,06,58,0.80
2018,03,24,06,59,0.80
2018,03,24,07,00,0.80
2018,03,24,07,01,0.70
2018,03,24,07,02,0.70
2018,03,24,07,03,0.70
2018,03,24,07,04,0.60
2018,03,24,07,05,0.60
2018,03,24,07,06,0.60
2018,03,24,07,07,0.60
2018,03,24,07,08,0.60
2018,03,24,07,09,0.60
2018,03,24,07,10,0.50
2018,03,24,07,11,0.50
2018,03,24,07,12,0.50
2018,03,24,07,13,0.50
2018,03,24,07,14,0.50
2018,03,24,07,15,0.50
2018,03,24,07,16,0.60
2018,03,24,07,17,0.60
2018,03,24,07,18,0.60
2018,03,24,07,19,0.70
2018,03,24,07,20,0.70
2018,03,24,07,21,0.70
2018,03,24,07,22,0.70
2018,03,24,07,23,0.70
2018,03,24,07,24,0.70
2018,03,24,07,25,0.70
2018,03,24,07,26,0.70
2018,03,24,07,27,0.70
2018,03,24,07,28,0.60
2018,03,24,07,29,0.60
2018,03,24,07,30,0.60
2018,03,24,07,31,0.60
2018,03,24,07,32,0.60
2018,03,24,07,33,0.60
2018,03,24,07,34,0.60
2018,03,24,07,35,0.60
2018,03,24,07,36,0.50
2018,03,24,07,37,0.50
2018,03,24,07,38,0.50
2018,03,24,07,39,0.50
2018,03,24,07,40,0.40
2018,03,24,07,41,0.40
2018,03,24,07,42,0.40
2018,03,24,07,43,0.30
2018,03,24,07,44,0.30
2018,03,24,07,45,0.30
2018,03,24,07,46,0.30
2018,03,24,07,47,0.30
2018,03,24,07,48,0.30
2018,03,24,07,49,0.30
2018,03,24,07,50,0.40
2018,03,24,07,51,0.40
2018,03,24,07,52,0.40
2018,03,24,07,53,0.40
2018,03,24,07,54,0.40
2018,03,24,07,55,0.40
2018,03,24,07,56,0.40
2018,03,24,07,57,0.50
2018,03,24,07,58,0.50
2018,03,24,07,59,0.50
2018,03,24,08,00,0.60
2018,03,24,08,01,0.60
2018,03,24,08,02,0.60
2018,03,24,08,03,0.60
2018,03,24,08,04,0.60
2018,03,24,08,05,0.60
2018,03,24,08,06,0.50
2018,03,24,08,07,0.50
2018,03,24,08,08,0.50
2018,03,24,08,09,0.50
2018,03,24,08,10,0.50
2018,03,24,08,11,0.50
2018,03,24,08,12,0.50
2018,03,24,08,13,0.50
2018,03,24,08,14,0.50
2018,03,24,08,15,0.60
2018,03,24,08,16,0.60
2018,03,24,08,17,0.60
2018,03,24,08,18,0.60
2018,03,24,08,19,0.60
2018,03,24,08,20,0.60
2018,03,24,08,21,0.70
2018,03,24,08,22,0.70
2018,03,24,08,23,0.70
2018,03,24,08,24,0.70
2018,03,24,08,25,0.70
2018,03,24,08,26,0.70
2018,03,24,08,27,0.60
2018,03,24,08,28,0.60
2018,03,24,08,29,0.60
2018,03,24,08,30,0.60
2018,03,24,08,31,0.70
2018,03,24,08,32,0.70
2018,03,24,08,33,0.70
2018,03,24,08,34,0.70
2018,03,24,08,35,0.70
2018,03,24,08,36,0.70
2018,03,24,08,37,0.70
2018,03,24,08,38,0.80
2018,03,24,08,39,0.80
2018,03,24,08,40,0.90
2018,03,24,08,41,0.90
2018,03,24,08,42,0.90
2018,03,24,08,43,1.00
2018,03,24,08,44,1.00
2018,03,24,08,45,1.10
2018,03,24,08,46,1.20
2018,03,24,08,47,1.20
2018,03,24,08,48,1.20
2018,03,24,08,49,1.30
2018,03,24,08,50,1.30
2018,03,24,08,51,1.40
2018,03,24,08,52,1.40
2018,03,24,08,53,1.50
2018,03,24,08,54,1.50
2018,03,24,08,55,1.60
2018,03,24,08,56,1.60
2018,03,24,08,57,1.70
2018,03,24,08,58,1.70
2018,03,24,08,59,1.80
2018,03,24,09,00,1.90
2018,03,24,09,01,1.90
2018,03,24,09,02,2.00
2018,03,24,09,03,2.10
2018,03,24,09,04,2.20
2018,03,24,09,05,2.30
2018,03,24,09,06,2.30
2018,03,24,09,07,2.40
2018,03,24,09,08,2.40
2018,03,24,09,09,2.50
2018,03,24,09,10,2.60
2018,03,24,09,11,2.70
2018,03,24,09,12,2.70
2018,03,24,09,13,2.80
2018,03,24,09,14,2.80
2018,03,24,09,15,2.90
2018,03,24,09,16,3.00
2018,03,24,09,17,3.10
2018,03,24,09,18,3.20
2018,03,24,09,19,3.30
2018,03,24,09,20,3.30
2018,03,24,09,21,3.40
2018,03,24,09,22,3.50
2018,03,24,09,23,3.60
2018,03,24,09,24,3.70
2018,03,24,09,25,3.80
2018,03,24,09,26,3.90
2018,03,24,09,27,4.00
2018,03,24,09,28,4.10
2018,03,24,09,29,4.20
2018,03,24,09,30,4.30
2018,03,24,09,31,4.40
2018,03,24,09,32,4.50
2018,03,24,09,33,4.60
2018,03,24,09,34,4.70
2018,03,24,09,35,4.80
2018,03,24,09,36,5.00
2018,03,24,09,37,5.20
2018,03,24,09,38,5.30
2018,03,24,09,39,5.40
2018,03,24,09,40,5.50
2018,03,24,09,41,5.60
2018,03,24,09,42,5.60
2018,03,24,09,43,5.60
2018,03,24,09,44,5.70
2018,03,24,09,45,5.80
2018,03,24,09,46,5.80
2018,03,24,09,47,5.90
2018,03,24,09,48,5.90
2018,03,24,09,49,6.00
2018,03,24,09,50,6.00
2018,03,24,09,51,6.00
2018,03,24,09,52,6.10
2018,03,24,09,53,6.10
2018,03,24,09,54,6.10
2018,03,24,09,55,6.20
2018,03,24,09,56,6.20
2018,03,24,09,57,6.20
2018,03,24,09,58,6.20
2018,03,24,09,59,6.20
2018,03,24,10,00,6.20
2018,03,24,10,01,6.20
2018,03,24,10,02,6.20
2018,03,24,10,03,6.30
2018,03,24,10,04,6.30
2018,03,24,10,05,6.30
2018,03,24,10,06,6.30
2018,03,24,10,07,6.30
2018,03,24,10,08,6.30
2018,03,24,10,09,6.40
2018,03,24,10,10,6.40
2018,03,24,10,11,6.40
2018,03,24,10,12,6.50
2018,03,24,10,13,6.60
2018,03,24,10,14,6.60
2018,03,24,10,15,6.70
2018,03,24,10,16,6.80
2018,03,24,10,17,6.90
2018,03,24,10,18,7.00
2018,03,24,10,19,7.00
2018,03,24,10,20,7.10
2018,03,24,10,21,7.20
2018,03,24,10,22,7.30
2018,03,24,10,23,7.40
2018,03,24,10,24,7.40
2018,03,24,10,25,7.50
2018,03,24,10,26,7.50
2018,03,24,10,27,7.50
2018,03,24,10,28,7.50
2018,03,24,10,29,7.40
2018,03,24,10,30,7.40
2018,03,24,10,31,7.40
2018,03,24,10,32,7.40
2018,03,24,10,33,7.30
2018,03,24,10,34,7.20
2018,03,24,10,35,7.20
2018,03,24,10,36,7.20
2018,03,24,10,37,7.20
2018,03,24,10,38,7.30
2018,03,24,10,39,7.40
2018,03,24,10,40,7.50
2018,03,24,10,41,7.60
2018,03,24,10,42,7.70
2018,03,24,10,43,7.70
2018,03,24,10,44,7.60
2018,03,24,10,45,7.60
2018,03,24,10,46,7.60
2018,03,24,10,47,7.70
2018,03,24,10,48,7.60
2018,03,24,10,49,7.60
2018,03,24,10,50,7.60
2018,03,24,10,51,7.70
2018,03,24,10,52,7.70
2018,03,24,10,53,7.80
2018,03,24,10,54,7.80
2018,03,24,10,55,7.80
2018,03,24,10,56,7.70
2018,03,24,10,57,7.70
2018,03,24,10,58,7.70
2018,03,24,10,59,7.60
2018,03,24,11,00,7.60
2018,03,24,11,01,7.50
2018,03,24,11,02,7.40
2018,03,24,11,03,7.40
2018,03,24,11,04,7.40
2018,03,24,11,05,7.50
2018,03,24,11,06,7.50
2018,03,24,11,07,7.60
2018,03,24,11,08,7.60
2018,03,24,11,09,7.60
2018,03,24,11,10,7.60
2018,03,24,11,11,7.60
2018,03,24,11,12,7.70
2018,03,24,11,13,7.70
2018,03,24,11,14,7.70
2018,03,24,11,15,7.70
2018,03,24,11,16,7.70
2018,03,24,11,17,7.70
2018,03,24,11,18,7.70
2018,03,24,11,19,7.60
2018,03,24,11,20,7.60
2018,03,24,11,21,7.60
2018,03,24,11,22,7.60
2018,03,24,11,23,7.60
2018,03,24,11,24,7.60
2018,03,24,11,25,7.60
2018,03,24,11,26,7.70
2018,03,24,11,27,7.80
2018,03,24,11,28,7.80
2018,03,24,11,29,7.80
2018,03,24,11,30,7.80
2018,03,24,11,31,7.90
2018,03,24,11,32,8.00
2018,03,24,11,33,8.10
2018,03,24,11,34,8.00
2018,03,24,11,35,8.00
2018,03,24,11,36,8.10
2018,03,24,11,37,8.00
2018,03,24,11,38,7.90
2018,03,24,11,39,7.80
2018,03,24,11,40,7.90
2018,03,24,11,41,7.90
2018,03,24,11,42,7.90
2018,03,24,11,43,7.90
2018,03,24,11,44,8.00
2018,03,24,11,45,8.10
2018,03,24,11,46,8.10
2018,03,24,11,47,8.00
2018,03,24,11,48,8.10
2018,03,24,11,49,8.10
2018,03,24,11,50,8.30
2018,03,24,11,51,8.40
2018,03,24,11,52,8.40
2018,03,24,11,53,8.50
2018,03,24,11,54,8.50
2018,03,24,11,55,8.40
2018,03,24,11,56,8.40
2018,03,24,11,57,8.30
2018,03,24,11,58,8.30
2018,03,24,11,59,8.30
2018,03,24,12,00,8.30
2018,03,24,12,01,8.40
2018,03,24,12,02,8.40
2018,03,24,12,03,8.40
2018,03,24,12,04,8.40
2018,03,24,12,05,8.40
2018,03,24,12,06,8.50
2018,03,24,12,07,8.60
2018,03,24,12,08,8.60
2018,03,24,12,09,8.70
2018,03,24,12,10,8.70
2018,03,24,12,11,8.80
2018,03,24,12,12,8.80
2018,03,24,12,13,8.80
2018,03,24,12,14,8.70
2018,03,24,12,15,8.70
2018,03,24,12,16,8.50
2018,03,24,12,17,8.30
2018,03,24,12,18,8.20
2018,03,24,12,19,8.30
2018,03,24,12,20,8.40
2018,03,24,12,21,8.50
2018,03,24,12,22,8.40
2018,03,24,12,23,8.50
2018,03,24,12,24,8.60
2018,03,24,12,25,8.80
2018,03,24,12,26,8.80
2018,03,24,12,27,8.90
2018,03,24,12,28,8.90
2018,03,24,12,29,8.80
2018,03,24,12,30,8.80
2018,03,24,12,31,8.80
2018,03,24,12,32,8.70
2018,03,24,12,33,8.70
2018,03,24,12,34,8.70
2018,03,24,12,35,8.60
2018,03,24,12,36,8.60
2018,03,24,12,37,8.60
2018,03,24,12,38,8.50
2018,03,24,12,39,8.40
2018,03,24,12,40,8.50
2018,03,24,12,41,8.60
2018,03,24,12,42,8.70
2018,03,24,12,43,8.80
2018,03,24,12,44,8.80
2018,03,24,12,45,8.90
2018,03,24,12,46,9.00
2018,03,24,12,47,9.10
2018,03,24,12,48,9.20
2018,03,24,12,49,9.30
2018,03,24,12,50,9.30
2018,03,24,12,51,9.30
2018,03,24,12,52,9.30
2018,03,24,12,53,9.10
2018,03,24,12,54,9.00
2018,03,24,12,55,8.90
2018,03,24,12,56,9.00
2018,03,24,12,57,9.10
2018,03,24,12,58,9.20
2018,03,24,12,59,9.30
2018,03,24,13,00,9.30
2018,03,24,13,01,9.30
2018,03,24,13,02,9.20
2018,03,24,13,03,9.10
2018,03,24,13,04,9.00
2018,03,24,13,05,8.90
2018,03,24,13,06,8.80
2018,03,24,13,07,8.80
2018,03,24,13,08,8.80
2018,03,24,13,09,8.80
2018,03,24,13,10,8.70
2018,03,24,13,11,8.50
2018,03,24,13,12,8.50
2018,03,24,13,13,8.50
2018,03,24,13,14,8.60
2018,03,24,13,15,8.70
2018,03,24,13,16,8.80
2018,03,24,13,17,8.90
2018,03,24,13,18,9.00
2018,03,24,13,19,9.10
2018,03,24,13,20,9.20
2018,03,24,13,21,9.20
2018,03,24,13,22,9.30
2018,03,24,13,23,9.30
2018,03,24,13,24,9.50
2018,03,24,13,25,9.50
2018,03,24,13,26,9.60
2018,03,24,13,27,9.60
2018,03,24,13,28,9.60
2018,03,24,13,29,9.40
2018,03,24,13,30,9.30
2018,03,24,13,31,9.20
2018,03,24,13,32,9.20
2018,03,24,13,33,9.30
2018,03,24,13,34,9.30
2018,03,24,13,35,9.40
2018,03,24,13,36,9.40
2018,03,24,13,37,9.40
2018,03,24,13,38,9.40
2018,03,24,13,39,9.40
2018,03,24,13,40,9.30
2018,03,24,13,41,9.30
2018,03,24,13,42,9.30
2018,03,24,13,43,9.20
2018,03,24,13,44,9.20
2018,03,24,13,45,9.20
2018,03,24,13,46,9.30
2018,03,24,13,47,9.40
2018,03,24,13,48,9.60
2018,03,24,13,49,9.60
2018,03,24,13,50,9.70
2018,03,24,13,51,9.70
2018,03,24,13,52,9.70
2018,03,24,13,53,9.70
2018,03,24,13,54,9.70
2018,03,24,13,55,9.70
2018,03,24,13,56,9.70
2018,03,24,13,57,9.70
2018,03,24,13,58,9.70
2018,03,24,13,59,9.80
2018,03,24,14,00,9.70
2018,03,24,14,01,9.70
2018,03,24,14,02,9.80
2018,03,24,14,03,9.80
2018,03,24,14,04,9.70
2018,03,24,14,05,9.70
2018,03,24,14,06,9.60
2018,03,24,14,07,9.70
2018,03,24,14,08,9.70
2018,03,24,14,09,9.80
2018,03,24,14,10,9.90
2018,03,24,14,11,9.90
2018,03,24,14,12,9.80
2018,03,24,14,13,9.70
2018,03,24,14,14,9.70
2018,03,24,14,15,9.70
2018,03,24,14,16,9.70
2018,03,24,14,17,9.70
2018,03,24,14,18,9.60
2018,03,24,14,19,9.70
2018,03,24,14,20,9.80
2018,03,24,14,21,9.90
2018,03,24,14,22,9.90
2018,03,24,14,23,9.80
2018,03,24,14,24,9.80
2018,03,24,14,25,9.90
2018,03,24,14,26,9.90
2018,03,24,14,27,10.00
2018,03,24,14,28,10.00
2018,03,24,14,29,10.00
2018,03,24,14,30,9.90
2018,03,24,14,31,9.90
2018,03,24,14,32,9.90
2018,03,24,14,33,9.90
2018,03,24,14,34,9.80
2018,03,24,14,35,9.70
2018,03,24,14,36,9.60
2018,03,24,14,37,9.60
2018,03,24,14,38,9.60
2018,03,24,14,39,9.60
2018,03,24,14,40,9.60
2018,03,24,14,41,9.60
2018,03,24,14,42,9.50
2018,03,24,14,43,9.50
2018,03,24,14,44,9.50
2018,03,24,14,45,9.40
2018,03,24,14,46,9.50
2018,03,24,14,47,9.70
2018,03,24,14,48,9.70
2018,03,24,14,49,9.70
2018,03,24,14,50,9.70
2018,03,24,14,51,9.60
2018,03,24,14,52,9.50
2018,03,24,14,53,9.50
2018,03,24,14,54,9.50
2018,03,24,14,55,9.50
2018,03,24,14,56,9.50
2018,03,24,14,57,9.60
2018,03,24,14,58,9.70
2018,03,24,14,59,9.80
2018,03,24,15,00,9.80
2018,03,24,15,01,9.90
2018,03,24,15,02,9.90
2018,03,24,15,03,9.90
2018,03,24,15,04,9.90
2018,03,24,15,05,9.90
2018,03,24,15,06,9.90
2018,03,24,15,07,9.80
2018,03,24,15,08,9.80
2018,03,24,15,09,9.80
2018,03,24,15,10,9.90
2018,03,24,15,11,9.90
2018,03,24,15,12,9.90
2018,03,24,15,13,9.90
2018,03,24,15,14,9.90
2018,03,24,15,15,9.90
2018,03,24,15,16,9.90
2018,03,24,15,17,9.90
2018,03,24,15,18,9.90
2018,03,24,15,19,9.80
2018,03,24,15,20,9.70
2018,03,24,15,21,9.70
2018,03,24,15,22,9.70
2018,03,24,15,23,9.70
2018,03,24,15,24,9.60
2018,03,24,15,25,9.60
2018,03,24,15,26,9.50
2018,03,24,15,27,9.50
2018,03,24,15,28,9.50
2018,03,24,15,29,9.40
2018,03,24,15,30,9.40
2018,03,24,15,31,9.40
2018,03,24,15,32,9.40
2018,03,24,15,33,9.30
2018,03,24,15,34,9.30
2018,03,24,15,35,9.40
2018,03,24,15,36,9.30
2018,03,24,15,37,9.30
2018,03,24,15,38,9.30
2018,03,24,15,39,9.30
2018,03,24,15,40,9.30
2018,03,24,15,41,9.30
2018,03,24,15,42,9.30
2018,03,24,15,43,9.30
2018,03,24,15,44,9.30
2018,03,24,15,45,9.20
2018,03,24,15,46,9.20
2018,03,24,15,47,9.10
2018,03,24,15,48,9.10
2018,03,24,15,49,9.10
2018,03,24,15,50,9.20
2018,03,24,15,51,9.20
2018,03,24,15,52,9.20
2018,03,24,15,53,9.30
2018,03,24,15,54,9.40
2018,03,24,15,55,9.40
2018,03,24,15,56,9.40
2018,03,24,15,57,9.40
2018,03,24,15,58,9.40
2018,03,24,15,59,9.40
2018,03,24,16,00,9.40
2018,03,24,16,01,9.50
2018,03,24,16,02,9.50
2018,03,24,16,03,9.40
2018,03,24,16,04,9.20
2018,03,24,16,05,9.00
2018,03,24,16,06,8.90
2018,03,24,16,07,8.80
2018,03,24,16,08,8.70
2018,03,24,16,09,8.60
2018,03,24,16,10,8.50
2018,03,24,16,11,8.40
2018,03,24,16,12,8.40
2018,03,24,16,13,8.40
2018,03,24,16,14,8.30
2018,03,24,16,15,8.30
2018,03,24,16,16,8.20
2018,03,24,16,17,8.20
2018,03,24,16,18,8.20
2018,03,24,16,19,8.20
2018,03,24,16,20,8.20
2018,03,24,16,21,8.20
2018,03,24,16,22,8.20
2018,03,24,16,23,8.20
2018,03,24,16,24,8.30
2018,03,24,16,25,8.30
2018,03,24,16,26,8.30
2018,03,24,16,27,8.30
2018,03,24,16,28,8.20
2018,03,24,16,29,8.10
2018,03,24,16,30,8.10
2018,03,24,16,31,8.10
2018,03,24,16,32,8.10
2018,03,24,16,33,8.10
2018,03,24,16,34,8.10
2018,03,24,16,35,8.20
2018,03,24,16,36,8.20
2018,03,24,16,37,8.20
2018,03,24,16,38,8.20
2018,03,24,16,39,8.30
2018,03,24,16,40,8.40
2018,03,24,16,41,8.50
2018,03,24,16,42,8.60
2018,03,24,16,43,8.60
2018,03,24,16,44,8.60
2018,03,24,16,45,8.50
2018,03,24,16,46,8.40
2018,03,24,16,47,8.30
2018,03,24,16,48,8.20
2018,03,24,16,49,8.20
2018,03,24,16,50,8.20
2018,03,24,16,51,8.20
2018,03,24,16,52,8.30
2018,03,24,16,53,8.40
2018,03,24,16,54,8.30
2018,03,24,16,55,8.30
2018,03,24,16,56,8.40
2018,03,24,16,57,8.40
2018,03,24,16,58,8.40
2018,03,24,16,59,8.40
2018,03,24,17,00,8.40
2018,03,24,17,01,8.40
2018,03,24,17,02,8.40
2018,03,24,17,03,8.40
2018,03,24,17,04,8.40
2018,03,24,17,05,8.40
2018,03,24,17,06,8.30
2018,03,24,17,07,8.30
2018,03,24,17,08,8.40
2018,03,24,17,09,8.30
2018,03,24,17,10,8.30
2018,03,24,17,11,8.20
2018,03,24,17,12,8.20
2018,03,24,17,13,8.20
2018,03,24,17,14,8.20
2018,03,24,17,15,8.30
2018,03,24,17,16,8.30
2018,03,24,17,17,8.30
2018,03,24,17,18,8.40
2018,03,24,17,19,8.40
2018,03,24,17,20,8.30
2018,03,24,17,21,8.30
2018,03,24,17,22,8.20
2018,03,24,17,23,8.20
2018,03,24,17,24,8.20
2018,03,24,17,25,8.10
2018,03,24,17,26,8.00
2018,03,24,17,27,7.90
2018,03,24,17,28,7.80
2018,03,24,17,29,7.70
2018,03,24,17,30,7.70
2018,03,24,17,31,7.60
2018,03,24,17,32,7.60
2018,03,24,17,33,7.60
2018,03,24,17,34,7.70
2018,03,24,17,35,7.70
2018,03,24,17,36,7.70
2018,03,24,17,37,7.70
2018,03,24,17,38,7.70
2018,03,24,17,39,7.70
2018,03,24,17,40,7.70
2018,03,24,17,41,7.70
2018,03,24,17,42,7.70
2018,03,24,17,43,7.60
2018,03,24,17,44,7.60
2018,03,24,17,45,7.60
2018,03,24,17,46,7.60
2018,03,24,17,47,7.50
2018,03,24,17,48,7.50
2018,03,24,17,49,7.50
2018,03,24,17,50,7.50
2018,03,24,17,51,7.50
2018,03,24,17,52,7.60
2018,03,24,17,53,7.60
2018,03,24,17,54,7.60
2018,03,24,17,55,7.60
2018,03,24,17,56,7.60
2018,03,24,17,57,7.60
2018,03,24,17,58,7.60
2018,03,24,17,59,7.60
2018,03,24,18,00,7.60
2018,03,24,18,01,7.60
2018,03,24,18,02,7.60
2018,03,24,18,03,7.50
2018,03,24,18,04,7.50
2018,03,24,18,05,7.40
2018,03,24,18,06,7.40
2018,03,24,18,07,7.30
2018,03,24,18,08,7.30
2018,03,24,18,09,7.20
2018,03,24,18,10,7.10
2018,03,24,18,11,7.10
2018,03,24,18,12,7.00
2018,03,24,18,13,6.90
2018,03,24,18,14,6.90
2018,03,24,18,15,6.90
2018,03,24,18,16,6.90
2018,03,24,18,17,6.80
2018,03,24,18,18,6.80
2018,03,24,18,19,6.80
2018,03,24,18,20,6.80
2018,03,24,18,21,6.80